Regional Weather Roundup
Issued by NWS

Home | Current Version | Previous Version | Text Only | Print | Product List | Glossary Off
Versions: 1 2 3 4 5 6 7 8 9 10 11 12 13 14 15 16 17 18 19 20 21 22 23 24 25 26 27 28 29 30 31 32 33 34 35 36 37 38 39 40 41 42 43 44 45 46 47 48 49 50

000
ASUS43 KDTX 272010
RWRMI
MICHIGAN HOURLY REGIONAL WEATHER ROUNDUP
NATIONAL WEATHER SERVICE DETROIT/PONTIAC MI
400 PM EDT SAT AUG 27 2016

NOTE: "FAIR" INDICATES FEW OR NO CLOUDS BELOW 12,000 FEET WITH NO
SIGNIFICANT WEATHER AND/OR OBSTRUCTION TO VISIBILITY.

MIZ047>049-052>055-059>063-066>070-074>076-081>083-272100-
SOUTHEAST LOWER MICHIGAN

CITY           SKY/WX    TMP DP  RH WIND       PRES   REMARKS
ADRIAN         CLOUDY    72  71  97 E6        30.11F
ALMA           CLOUDY    74  71  91 E5        30.08F
ANN ARBOR      CLOUDY    71  71 100 MISG      30.12R
BAD AXE        DRIZZLE   70  68  94 SE3       30.11F
CARO           RAIN      71  70  98 SE5       30.10S
DETROIT CITY   TSTM      71  71 100 N8        30.13F FOG
DETROIT        TSTM      71  71 100 SE5       30.13S FOG
FLINT          LGT RAIN  74  70  87 E9        30.09F
GROSSE ILE     RAIN      70  69  96 CALM      30.13S
HILLSDALE      PTSUNNY   76  70  80 SE6       30.09F
HOWELL         CLOUDY    73  71  95 SE10      30.10F

CITY           SKY/WX    TMP DP  RH WIND       PRES   REMARKS
JACKSON        PTSUNNY   75  72  90 SE9       30.09S
LAMBERTVILLE   LGT RAIN  72  70  93 NE5       30.12F
LANSING        CLOUDY    73  68  84 E7        30.07F
LAPEER         RAIN      71  70  96 SE8       30.12F
MASON          PTSUNNY   73  70  88 SE14G20   30.08S
MONROE         RAIN      71  71 100 CALM      30.12F
MT. CLEMENS    TSTM      70  69  98 E8        30.12F FOG
PONTIAC        CLOUDY    70  69  97 E9        30.11F
PORT HURON     HVY RAIN  72  70  94 NW9G17    30.16R
TRI CITIES     PTSUNNY   71  70  96 E7        30.08F
MIDLAND        CLOUDY    72  68  87 E5        30.08F
TROY           HVY RAIN  72  69  92 E3        30.15F
SAGINAW HB     CLOUDY    72  70  94 E9        30.08F
$$
MIZ043>046-050>051-056>058-064>065-071>073-077>080-272100-
SOUTHWEST LOWER MICHIGAN

CITY           SKY/WX    TMP DP  RH WIND       PRES   REMARKS
BATTLE CREEK   PTSUNNY   75  72  90 S8        30.07F
BENTON HARBOR  MOSUNNY   82  71  69 S7        30.04F
BIG RAPIDS     CLOUDY    73  68  82 S8        30.06F
COLDWATER      CLOUDY    76  73  87 SE5       30.08S
FREMONT        PTSUNNY   76  68  78 SE7       30.05S
HOLLAND        MOSUNNY   81  71  71 SW9       30.05F
GRAND RAPIDS   PTSUNNY   75  67  76 SE5       30.06F
IONIA          PTSUNNY   71  67  85 SE5       30.07S
KALAMAZOO      PTSUNNY   77  70  79 S9        30.06F
LUDINGTON      CLOUDY    73  69  87 S7        30.04F
MARSHALL       CLOUDY    73  72  94 SE3       30.08S
MOUNT PLEASANT CLOUDY    73  68  83 SE6       30.07F
MUSKEGON       PTSUNNY   79  71  76 SW12      30.04F
SOUTH HAVEN    CLOUDY    83  70  66 SW9       30.04F
$$
MIZ016>042-272100-
NORTHERN LOWER MICHIGAN

CITY           SKY/WX    TMP DP  RH WIND       PRES   REMARKS
ALPENA         LGT RAIN  68  63  84 E7        30.12F
BEAVER ISLAND  CLOUDY    65  64  96 E5        30.08F
BELLAIRE       CLOUDY    70  63  80 SE3       30.06F
CADILLAC       CLOUDY    71  65  80 SE9       30.07F
CHARLEVOIX     CLOUDY    67  62  86 E9        30.09F
FRANKFORT      CLOUDY    72  66  81 SE8       30.03F
GAYLORD        CLOUDY    67  61  81 SE9       30.10F
GRAYLING       CLOUDY    70  65  85 SE8       30.10F
HARBOR SPRINGS CLOUDY    65  62  87 E10G16    30.08F
HOUGHTON LAKE  PTSUNNY   70  64  81 SE10      30.10F
MANISTEE       CLOUDY    73  68  84 VRB3      30.03F
OSCODA         CLOUDY    69  65  88 E6        30.11F
PELLSTON       CLOUDY    66  60  81 E8        30.09F
ROGERS CITY    CLOUDY    68  64  87 SE6       30.12F
TRAVERSE CITY  CLOUDY    73  66  78 VRB6      30.03F
$$
MIZ007>008-015-272100-
EASTERN UPPER MICHIGAN

CITY           SKY/WX    TMP DP  RH WIND       PRES   REMARKS
KINROSS        LGT RAIN  64  63  94 E7        30.12F
MACKINAC ISLAN CLOUDY    65  65 100 SE6       30.10F
NEWBERRY       LGT RAIN  62  61  97 E6        30.11S
S. S. MARIE    LGT RAIN  65  62  90 E6        30.12F
$$
MIZ004>006-011>014-085-272100-
CENTRAL UPPER MICHIGAN

CITY           SKY/WX    TMP DP  RH WIND       PRES   REMARKS
MANISTIQUE     DRIZZLE   64  62  92 E7        30.08F
ESCANABA       CLOUDY    66  60  81 SE9       30.07F
MENOMINEE      CLOUDY   N/A N/A N/A SE6       30.07F
SAWYER-GWINN   PTSUNNY   66  57  72 S9        30.09F
$$
MIZ001>003-009>011-084-272100-
WESTERN UPPER MICHIGAN

CITY           SKY/WX    TMP DP  RH WIND       PRES   REMARKS
IRON MOUNTAIN  CLOUDY    65  59  81 SE6       30.07F
HOUGHTON       MOSUNNY   68  56  65 E9        30.07S
IRONWOOD       LGT RAIN  68  57  68 CALM      30.06F
$$

ABBREVIATIONS USED IN REMARKS
   TC - TEMPERATURE IN CELSIUS
  WCI - WIND CHILL INDEX
   HX - HEAT INDEX
  VSB - VISIBILITY





USA.gov is the U.S. government's official web portal to all federal, state and local government web resources and services.